Location: Leiter
(44.7178°N, 106.2687°W)
Time: 22:44:07
(UTC+00:00)

STARS - Pass Details

Date: 06 July 2022
Orbit: 620 x 637 km, 98.2° (Epoch: 07 August)

Event Time Altitude Azimuth Distance (km) Brightness Sun altitude
Rises 06:26:50 0° 6° (N) 2,927 ? -21.9°
Reaches altitude 10° 06:29:08 10° 359° (N) 2,012 ? -22.0°
Maximum altitude 06:33:12 40° 290° (WNW) 933 ? -22.1°
Enters shadow 06:34:46 29° 246° (WSW) 1,153 ? -22.1°
